COSMOS 2251 DEB, 35038

Orbit data source: Space-Track

COSMOS 2251 DEB, 35038 is space debris in LEO originally from a launch on Wed, 16 Jun 1993 UTC launched from the Plesetsk Missile And Space Complex (PKMTR). The debris from Iridium 33, an American commercial communications satellite, has been tracked extensively since its accidental collision with the defunct Russian satellite Cosmos 2251 in 2009. This event, occurring at high speed in low Earth orbit (LEO), generated thousands of pieces of space debris, significantly increasing the risk of further collisions. The Iridium 33 debris cloud has impacted space traffic management and orbital debris mitigation strategies, making it a subject of ongoing study in space situational awareness.

Loading next visibility...
Identifier
35038, 1993-036AHB
Orbit
LEO
Country
Flag of CISCIS
Related business
Manufacturer
Unknown
Mission
Spacecraft
Bus & Motor
Unknown
Mass
Unknown
Launch date (UTC)
1993-06-16 (33 years ago)
Launch vehicle
Unknown
Launch site
Plesetsk Missile And Space Complex (PKMTR)
Object type
Payload
Rocket body
Debris
Shape & HBR
Unknown shape, 0.1 m
Radar Cross Section
Small (<0.1 m²)

Expand to show TLE details & history
Last TLE update: 1 day ago

TLE from 1 day ago
0 COSMOS 2251 DEB
1 35038U 93036AHB 26207.42241483  .00002756  00000-0  10786-2 0  9999
2 35038  74.1053 356.5725 0109698 285.0442 105.9112 14.26720287887867
Epoch: 2026-07-26T10:08Z
TLE epoch observation values (Epoch: 2026-07-26T10:08:16.641Z)
Latitude
30.85329°
Longitude
-89.87557°
Altitude
828.688 km
Speed
7.43 km/s
True Right ascension
00h 25m 15s
True Declination
30° 42' 13"
Sunlit
Object was in daylight at epoch
Visualization orbit readout
Latitude
Unknown
Longitude
Unknown
Altitude
Unknown
Speed
Unknown
Apparent Right ascension
Unknown
Apparent Declination
Unknown
Sunlit
N/A
Visualization observer readout
Local Sidereal Time
00:49:47
Azimuth
Unknown
Elevation
Unknown
Doppler factor
Unknown
Orbital elements
Apogee altitude
879.089 km
Perigee altitude
721.596 km
Semi-major axis
7,178.48 km
Eccentricity
0.01097
Inclination
74.1053°
RAAN
356.5725°
Arg. of periapsis
285.0442°
True anomaly
107.11547°
Mean anomaly
105.9112°
Eccentric anomaly
106.5138°
Mean motion
3.56857 °/min
Orbital period
100.88 mins
BSTAR
0.0010786
Loading maneuver chart data...
Computing Atmospheric mass density...

Documentation

Showing up to 5 results
|